Weather History for Oceana NAS, VA

Change the Weather History Date:

Wednesday, July 31, 2013

  Actual Average Record
Temperature  
Mean Temperature 76 °F -  
Max Temperature 82 °F 83 °F 95 °F (2006)
Min Temperature 71 °F 68 °F 60 °F (1997)
Cooling Degree Days 12    
Growing Degree Days 26 (Base 50)    
Moisture  
Dew Point 65 °F    
Average Humidity 69    
Maximum Humidity 87    
Minimum Humidity 48    
Precipitation  
Precipitation 0.00 in - - ()
Sea Level Pressure  
Sea Level Pressure 30.11 in    
Wind  
Wind Speed 4 mph (SE)    
Max Wind Speed 13 mph    
Max Gust Speed 17 mph    
Visibility 10 miles    
Events Rain    
Averages and records for this station are not official NWS values.
T = Trace of Precipitation, MM = Missing Value Source: NWS Daily Summary

Daily Weather History Graph

Daily Weather History Graph

Search for Another Location

Airport:

Trip Planner

Search our weather history database for the weather conditions in past years. The results will help you decide how hot, cold, wet, or windy it might be!

Date:

Astronomy

Jul. 31, 2013 Rise Set
Actual Time 6:09 AM EDT 8:11 PM EDT
Civil Twilight 5:40 AM EDT 8:40 PM EDT
Nautical Twilight 5:05 AM EDT 9:14 PM EDT
Astronomical Twilight 4:27 AM EDT 9:52 PM EDT
Moon 1:02 AM EDT (7/31) 3:25 PM EDT (7/31)
Length of Visible Light 14h 59m
Length of Day
14h 02m
Waning Crescent, 32% of the Moon is Illuminated
Jul 31
Waning Crescent
Aug 6
New
Aug 14
First Quarter
Aug 20
Full
Aug 28
Last Quarter

Hourly Weather History & Observations

Time (EDT) Temp. Heat Index Dew Point Humidity Pressure Visibility Wind Dir Wind Speed Gust Speed Precip Events Conditions
12:56 AM 72.0 °F - 66.9 °F 84% 30.15 in 10.0 mi ESE 3.5 mph - N/A   Mostly Cloudy
1:56 AM 71.1 °F - 66.0 °F 84% 30.15 in 10.0 mi Calm Calm - N/A   Mostly Cloudy
2:56 AM 71.1 °F - 66.9 °F 87% 30.14 in 10.0 mi Calm Calm - N/A   Mostly Cloudy
3:56 AM 71.1 °F - 66.9 °F 87% 30.14 in 10.0 mi Calm Calm - N/A   Overcast
4:56 AM 72.0 °F - 68.0 °F 87% 30.14 in 10.0 mi Calm Calm - N/A   Overcast
5:56 AM 73.0 °F - 68.0 °F 84% 30.15 in 10.0 mi Calm Calm - N/A   Overcast
6:56 AM 72.0 °F - 68.0 °F 87% 30.15 in 10.0 mi Calm Calm - N/A   Overcast
7:56 AM 75.0 °F - 70.0 °F 84% 30.16 in 10.0 mi Calm Calm - N/A   Overcast
8:56 AM 77.0 °F - 68.0 °F 74% 30.16 in 10.0 mi East 4.6 mph - N/A   Overcast
9:56 AM 78.1 °F - 66.0 °F 66% 30.16 in 10.0 mi ESE 6.9 mph - N/A   Overcast
10:56 AM 78.1 °F - 64.0 °F 62% 30.16 in 10.0 mi East 8.1 mph - N/A   Overcast
11:56 AM 79.0 °F - 63.0 °F 58% 30.16 in 10.0 mi SE 6.9 mph - N/A   Overcast
12:56 PM 80.1 °F 80.7 °F 59.0 °F 48% 30.14 in 10.0 mi SE 11.5 mph - N/A   Overcast
1:56 PM 82.9 °F 84.0 °F 63.0 °F 51% 30.12 in 10.0 mi ESE 9.2 mph - N/A   Overcast
2:56 PM 81.0 °F 81.6 °F 60.1 °F 49% 30.12 in 10.0 mi SSE 9.2 mph - N/A   Mostly Cloudy
3:56 PM 81.0 °F 81.7 °F 61.0 °F 50% 30.09 in 10.0 mi SSE 12.7 mph 17.3 mph N/A   Mostly Cloudy
4:56 PM 82.0 °F 83.8 °F 64.9 °F 56% 30.08 in 10.0 mi SE 10.4 mph - N/A   Mostly Cloudy
5:56 PM 80.1 °F 81.7 °F 64.0 °F 58% 30.07 in 10.0 mi SE 10.4 mph - N/A   Mostly Cloudy
6:56 PM 78.1 °F - 64.9 °F 64% 30.06 in 10.0 mi ESE 9.2 mph - N/A   Mostly Cloudy
7:56 PM 77.0 °F - 64.9 °F 66% 30.06 in 10.0 mi SE 8.1 mph - N/A   Overcast
8:56 PM 77.0 °F - 64.9 °F 66% 30.07 in 10.0 mi SSE 5.8 mph - N/A   Overcast
9:56 PM 75.9 °F - 66.0 °F 71% 30.07 in 10.0 mi SE 5.8 mph - N/A   Overcast
10:56 PM 75.9 °F - 64.9 °F 69% 30.07 in 10.0 mi SSE 5.8 mph - N/A   Overcast
11:32 PM 75.2 °F - 64.4 °F 69% 30.05 in 10.0 mi South 3.5 mph - 0.00 in Rain Light Rain
11:56 PM 75.0 °F - 66.0 °F 73% 30.04 in 10.0 mi SE 6.9 mph - 0.00 in Rain Light Rain